Location: Unspecified
(0.0000°N, 0.0000°E)
Time: 10:09:30
(UTC+02:00)

Resurs 01 Rocket - Visible Passes

Search period start: 01 July 2016 00:00
Search period end: 11 July 2016 00:00
Orbit: 634 x 645 km, 98.2° (Epoch: 30 June)

Date Brightness Start Highest point End Pass type
(mag) Time Alt. Az. Time Alt. Az. Time Alt. Az.
01 Jul 1.6 21:17:29 14° SSE 21:21:19 89° WSW 21:25:45 10° NNW visible
02 Jul 2.8 21:41:06 14° SSW 21:44:38 40° WSW 21:48:47 10° NNW visible
03 Jul 3.2 20:28:44 10° ESE 20:31:44 18° ENE 20:34:43 10° NE visible
03 Jul 4.0 22:04:44 10° SSW 22:07:56 20° WSW 22:11:08 10° NW visible
04 Jul 2.2 20:50:57 10° SE 20:55:03 37° ENE 20:59:07 10° N visible
05 Jul 1.5 21:14:25 13° SSE 21:18:22 82° ENE 21:22:46 10° N visible
06 Jul 2.6 21:38:03 14° S 21:41:40 45° WSW 21:45:54 10° NNW visible
07 Jul 3.9 22:01:41 10° SSW 22:04:58 22° WSW 22:08:22 10° NW visible
08 Jul 2.4 20:48:05 10° SE 20:52:05 33° ENE 20:56:03 10° NNE visible
08 Jul 4.7 22:27:51 10° WSW 22:28:16 10° WSW 22:28:40 10° W visible
09 Jul 1.5 21:11:22 12° SSE 21:15:24 73° ENE 21:19:47 10° N visible
10 Jul 2.4 21:35:01 14° S 21:38:42 51° WSW 21:42:59 10° NNW visible
